TimeEDT,TemperatureF,Dew PointF,Humidity,Sea Level PressureIn,VisibilityMPH,Wind Direction,Wind SpeedMPH,Gust SpeedMPH,PrecipitationIn,Events,Conditions,WindDirDegrees,DateUTC
12:53 AM,78.1,73.0,84,29.94,10.0,Calm,Calm,-,N/A,,Mostly Cloudy,0,2013-08-08 04:53:00
1:53 AM,78.1,73.0,84,29.93,10.0,Calm,Calm,-,N/A,,Partly Cloudy,0,2013-08-08 05:53:00
2:53 AM,77.0,73.0,88,29.93,10.0,SSE,3.5,-,N/A,,Mostly Cloudy,160,2013-08-08 06:53:00
3:53 AM,75.9,73.0,91,29.91,10.0,Calm,Calm,-,N/A,,Overcast,0,2013-08-08 07:53:00
4:53 AM,75.9,72.0,87,29.92,10.0,South,4.6,-,N/A,,Overcast,180,2013-08-08 08:53:00
5:53 AM,75.9,72.0,87,29.91,10.0,Calm,Calm,-,N/A,,Overcast,0,2013-08-08 09:53:00
6:53 AM,75.9,72.0,87,29.93,10.0,Calm,Calm,-,N/A,,Mostly Cloudy,0,2013-08-08 10:53:00
7:53 AM,75.0,72.0,90,29.94,10.0,SSE,3.5,-,N/A,,Clear,160,2013-08-08 11:53:00
8:53 AM,75.9,72.0,87,29.94,10.0,South,5.8,-,N/A,,Mostly Cloudy,170,2013-08-08 12:53:00
9:37 AM,77.0,71.6,83,29.97,10.0,South,6.9,-,N/A,,Mostly Cloudy,190,2013-08-08 13:37:00
9:53 AM,77.0,72.0,84,29.96,10.0,SSW,5.8,-,N/A,,Overcast,200,2013-08-08 13:53:00
10:10 AM,77.0,71.6,83,29.97,10.0,SSE,5.8,-,N/A,,Mostly Cloudy,160,2013-08-08 14:10:00
10:49 AM,78.8,71.6,78,29.98,10.0,SSW,5.8,-,N/A,,Mostly Cloudy,200,2013-08-08 14:49:00
10:53 AM,79.0,72.0,79,29.97,10.0,SW,6.9,-,N/A,,Mostly Cloudy,220,2013-08-08 14:53:00
11:30 AM,80.6,71.6,74,29.98,10.0,Variable,5.8,-,N/A,,Mostly Cloudy,0,2013-08-08 15:30:00
11:53 AM,81.0,73.0,77,29.97,10.0,South,5.8,-,N/A,,Mostly Cloudy,170,2013-08-08 15:53:00
12:17 PM,82.4,73.4,74,29.98,10.0,Variable,6.9,-,N/A,,Scattered Clouds,0,2013-08-08 16:17:00
12:53 PM,84.0,73.0,69,29.95,10.0,South,8.1,-,N/A,,Clear,180,2013-08-08 16:53:00
1:53 PM,84.9,72.0,65,29.92,10.0,South,5.8,-,N/A,,Scattered Clouds,170,2013-08-08 17:53:00
2:53 PM,86.0,73.0,65,29.92,10.0,South,6.9,-,N/A,,Mostly Cloudy,190,2013-08-08 18:53:00
3:53 PM,86.0,71.1,61,29.91,10.0,Variable,4.6,-,N/A,,Mostly Cloudy,0,2013-08-08 19:53:00
4:53 PM,86.0,71.1,61,29.90,10.0,SW,3.5,-,N/A,,Scattered Clouds,220,2013-08-08 20:53:00
5:53 PM,86.0,71.1,61,29.89,10.0,South,6.9,-,N/A,,Partly Cloudy,190,2013-08-08 21:53:00
6:53 PM,84.9,71.1,63,29.88,10.0,South,6.9,-,N/A,,Clear,190,2013-08-08 22:53:00
7:53 PM,84.0,71.1,65,29.88,10.0,South,6.9,-,N/A,,Clear,190,2013-08-08 23:53:00
8:53 PM,82.0,73.9,76,29.90,10.0,SSW,8.1,-,N/A,,Mostly Cloudy,200,2013-08-09 00:53:00
9:08 PM,82.4,73.4,74,29.92,10.0,SSW,9.2,-,N/A,,Mostly Cloudy,210,2013-08-09 01:08:00
9:24 PM,80.6,73.4,79,29.93,10.0,SSW,8.1,-,N/A,,Mostly Cloudy,210,2013-08-09 01:24:00
9:53 PM,80.1,73.9,81,29.92,10.0,SSW,6.9,-,N/A,,Overcast,210,2013-08-09 01:53:00
10:53 PM,79.0,73.0,82,29.94,10.0,SW,5.8,-,N/A,,Overcast,220,2013-08-09 02:53:00
11:46 PM,78.8,73.4,83,29.95,10.0,SW,10.4,16.1,N/A,,Mostly Cloudy,230,2013-08-09 03:46:00
11:53 PM,78.1,73.0,84,29.93,10.0,SSW,8.1,-,N/A,,Mostly Cloudy,210,2013-08-09 03:53:00